Location: ????
(32.1228°N, 34.8377°E)
Time: 00:38:10
(UTC+00:00)

COSMOS 2428 - Pass Details

Date: 21 September 2020
Orbit: 844 x 859 km, 70.9° (Epoch: 21 October)

Event Time Altitude Azimuth Distance (km) Brightness Sun altitude
Rises 02:41:58 0° 185° (S) 3,394 5.7 -10.6°
Reaches altitude 10° 02:44:27 10° 180° (S) 2,464 5.1 -10.1°
Maximum altitude 02:49:54 51° 106° (ESE) 1,064 3.7 -9.0°
Drops below altitude 10° 02:55:25 10° 32° (NNE) 2,487 5.7 -7.8°
Sets 02:57:56 0° 27° (NNE) 3,429 6.4 -7.3°
